Location: Churchill Northern Studies Centre
(58.7378°N, 93.8201°W)
Time: 01:37:23
(UTC-05:00)

Envisat - Pass Details

Date: 10 October 2017
Orbit: 764 x 766 km, 98.2° (Epoch: 21 October)

Event Time Altitude Azimuth Distance (km) Brightness Sun altitude
Exits shadow 20:07:41 11° 145° (SE) 2,242 5.0 -14.5°
Maximum altitude 20:12:32 62° 66° (ENE) 864 3.0 -15.1°
Drops below altitude 10° 20:17:34 10° 347° (NNW) 2,318 5.8 -15.7°
Sets 20:19:54 0° 345° (NNW) 3,248 6.7 -16.0°
